Zurück zum Katalog

STARLINK-3327

AktivKommunikationVLEO
NORAD 50819·PAYLOAD·🇺🇸 United States

Gestartet Jan 6, 2022 von Cape Canaveral Space Force Station

Loading…

Nächste Überflüge (nächste 24 Stunden)

TLE

AktuellSource: CelesTrak SupGP

Epoche: Sep 14, 2026, 20:40 UTC

1 50819C 22001S   26257.86159722  .00037725  00000+0  11147-2 0  2576
2 50819  53.1593  28.4367 0000998  76.8883 324.8410 15.34368077    14

Verfolge STARLINK-3327 in Echtzeit mit AllMySat

Download on the App Store